Wind_Speed
20 20 20 20 20 20 20 20 19 18 18 17 17 17 17 17 17 17 17 17 16 15 15 15 16 15 13 13 13 13 13 14 14 14 14 14 14 14 14 14 14 15 15 15
21 21 21 21 21 20 20 19 19 19 19 19 18 18 18 18 18 17 17 17 17 17 17 16 16 15 14 14 14 14 14 14 14 14 14 14 15 14 14 14 14 15 15 15
20 21 21 23 21 20 20 20 19 19 19 19 18 18 17 17 18 18 18 18 18 18 17 18 17 16 15 15 16 16 15 16 16 15 15 15 15 15 15 15 15 15 15 14
21 21 23 23 22 21 21 20 20 20 19 19 18 18 18 18 18 18 18 18 18 18 18 18 18 17 16 16 17 17 17 17 17 16 15 15 15 16 16 16 15 15 15 15
23 23 24 24 22 21 20 20 20 20 20 19 18 18 18 18 18 18 19 19 19 19 19 19 18 18 16 16 17 18 19 18 17 17 17 17 17 17 17 17 16 16 16 16
24 24 24 25 23 22 22 22 21 21 21 20 19 19 19 19 19 19 19 19 18 19 19 18 18 17 17 17 18 19 19 18 18 18 18 18 18 17 17 18 18 18 17 17
23 24 25 26 24 23 24 24 23 22 22 21 20 20 19 19 19 20 20 20 20 20 19 19 19 18 18 18 18 18 18 18 18 18 18 18 19 18 18 18 19 19 19 18
24 24 26 26 25 25 24 23 24 23 22 21 21 20 19 19 19 19 20 20 20 20 20 20 20 20 20 19 19 19 19 19 18 19 19 19 20 20 20 20 20 20 20 20
25 25 25 26 25 25 25 25 24 23 22 22 21 21 20 20 20 20 20 20 20 20 20 20 20 20 21 21 21 21 21 20 20 20 21 21 21 21 21 21 21 21 21 22
25 26 26 27 26 25 25 24 23 23 23 22 22 22 21 21 21 21 21 20 20 20 20 20 20 21 21 21 21 21 22 22 22 22 22 22 22 22 22 21 21 21 21 21
27 27 28 27 26 26 25 25 24 24 24 24 23 23 23 22 22 22 21 21 21 21 21 21 21 22 22 22 22 22 23 23 23 23 22 22 22 22 22 22 21 21 21 22
25 26 26 26 26 25 25 25 24 25 25 24 24 24 24 23 23 22 22 22 22 22 22 22 22 22 22 22 22 22 23 24 24 24 23 24 24 24 23 22 21 21 21 22
24 24 25 25 25 25 24 24 25 25 25 25 25 25 25 24 23 23 23 23 23 23 23 22 22 23 22 22 22 23 24 24 25 25 24 24 24 24 23 21 21 21 21 21
23 23 24 24 24 25 25 24 24 24 25 25 25 25 25 24 24 24 23 23 23 23 22 22 22 22 22 22 22 23 24 24 24 25 25 24 24 23 22 21 21 21 21 21
21 22 23 23 24 24 24 24 24 24 25 25 25 24 24 24 24 24 23 23 23 22 22 21 21 22 22 22 23 23 23 24 25 25 24 23 23 22 22 22 22 22 21 21
20 20 21 23 23 23 22 23 24 24 23 24 23 23 23 23 23 24 23 22 22 22 22 22 21 21 22 22 23 23 24 24 25 25 23 23 21 21 21 21 21 21 21 21
21 21 21 21 22 22 22 22 22 22 22 22 22 22 22 22 22 21 21 21 21 21 21 21 21 21 22 22 23 23 23 24 24 24 23 22 22 22 22 21 21 20 21 21
20 20 22 22 22 22 22 22 22 22 22 22 21 22 22 21 21 21 20 20 20 20 21 21 21 22 22 22 23 23 23 23 23 22 22 22 22 23 23 22 21 20 20 19
20 20 20 21 21 21 20 22 23 23 22 22 22 22 22 22 22 22 21 21 22 21 21 22 22 22 22 23 24 24 23 23 22 22 22 22 22 22 22 21 20 19 19 19
18 18 19 19 19 19 20 21 21 21 22 22 23 23 23 23 23 24 23 23 23 23 23 23 23 23 23 22 22 21 21 21 20 21 22 22 22 22 21 21 20 19 19 19
17 18 18 18 19 19 20 20 21 21 21 22 22 23 23 23 23 23 22 22 22 22 22 23 23 23 24 23 22 22 22 22 21 22 22 22 21 21 21 20 21 20 19 19
18 18 18 19 19 19 20 21 21 21 22 22 22 23 23 22 22 22 21 21 21 22 22 22 23 23 23 23 23 22 22 22 22 22 22 22 22 21 20 20 20 20 19 19
19 19 19 19 19 19 20 20 21 21 21 22 23 23 22 22 21 21 20 21 21 21 22 22 22 23 22 22 21 20 20 20 20 21 21 21 20 20 20 20 20 21 21 20
19 20 20 21 20 20 20 20 20 20 21 21 21 21 21 21 21 20 20 20 21 21 22 21 21 21 21 20 20 20 20 19 19 20 21 20 20 21 21 21 21 21 21 21
19 19 20 20 19 20 20 20 20 20 20 20 20 21 21 21 21 21 20 20 20 21 22 22 22 21 20 20 19 19 19 19 19 20 20 20 20 21 22 21 21 22 22 22
19 19 19 19 19 19 19 19 19 19 19 19 19 20 20 20 21 21 21 21 21 21 21 21 21 20 20 20 19 19 18 19 20 20 21 21 21 21 21 22 22 22 22 22
18 18 19 19 19 18 18 18 18 18 18 18 19 19 19 20 21 21 22 22 22 21 21 20 20 19 19 19 19 19 20 20 20 21 21 22 22 21 21 21 21 22 22 22
Wind_Direction
244 246 245 249 249 250 254 258 263 268 273 276 277 278 281 281 281 282 283 282 280 280 283 286 287 286 284 282 280 283 287 288 289 292 292 290 290 293 295 293 291 290 288 286
247 246 245 248 251 254 255 258 261 266 270 273 275 277 279 278 278 279 280 281 281 281 281 282 282 283 282 281 279 282 286 288 290 292 294 295 293 291 291 290 290 290 290 289
246 248 250 252 252 254 255 258 262 265 269 271 272 274 275 277 279 280 279 278 278 279 278 280 282 283 282 280 278 281 285 289 292 293 294 295 294 290 288 289 289 287 289 290
248 249 252 256 255 254 256 258 261 265 268 270 270 272 273 276 278 277 276 274 275 277 277 278 280 280 280 279 281 281 282 285 288 290 291 293 292 291 287 285 286 287 288 288
248 250 254 256 254 254 256 258 260 263 266 268 270 270 271 274 275 274 272 270 272 274 274 274 275 279 279 281 281 283 284 283 284 287 288 288 288 288 286 285 284 285 286 285
249 249 252 254 255 256 260 261 260 261 263 267 269 270 271 272 272 271 272 272 273 271 270 273 274 278 281 281 281 282 285 285 285 286 287 286 287 286 285 285 285 284 286 285
251 252 253 256 259 259 261 262 262 262 264 265 266 268 270 271 272 271 274 274 276 276 273 274 277 277 281 282 281 284 288 290 288 286 287 288 288 286 285 285 286 285 285 285
249 251 253 257 257 257 260 263 263 263 263 263 265 267 268 270 272 272 273 273 275 276 273 273 275 276 278 280 280 282 286 289 290 289 288 287 287 286 285 284 284 284 285 285
248 251 254 255 257 257 258 261 261 262 263 263 264 265 267 270 270 271 272 274 274 274 272 272 271 273 277 278 278 280 282 284 287 289 289 287 285 286 285 284 283 282 284 286
248 251 253 255 258 258 259 260 260 261 262 262 263 264 266 269 270 271 272 272 273 273 271 271 273 275 276 277 278 280 281 283 285 287 288 288 287 286 283 282 282 283 284 286
250 251 251 253 256 257 258 259 258 258 260 261 262 263 265 268 269 271 271 272 274 273 272 271 273 277 277 277 278 280 282 284 286 287 287 288 290 289 286 284 281 281 283 286
251 252 252 252 252 253 255 256 256 256 259 260 260 262 263 266 267 267 268 269 272 273 272 272 274 276 276 276 277 280 282 284 286 286 286 287 289 287 284 284 282 279 282 284
253 253 253 253 253 254 252 252 254 256 257 257 259 262 262 264 265 265 267 270 272 272 273 273 274 275 276 277 279 280 282 283 284 285 285 285 286 285 283 283 281 282 283 284
254 254 253 253 253 253 252 253 253 254 255 256 259 261 261 263 264 265 267 270 272 272 272 273 275 276 276 278 281 282 281 282 284 285 284 284 283 282 282 282 282 283 284 284
257 256 255 254 253 253 252 253 253 254 257 260 262 261 260 261 263 265 265 268 269 269 270 273 274 276 277 279 281 282 282 281 284 285 284 283 282 281 281 280 281 282 283 283
257 256 255 254 255 255 254 254 254 254 257 259 259 259 261 262 263 265 265 267 269 269 271 274 274 277 280 280 280 280 282 282 283 282 279 279 280 281 281 281 282 282 283 283
258 256 253 252 252 252 252 251 252 252 255 257 258 260 262 264 265 265 266 268 270 271 273 275 276 278 279 279 280 281 283 284 282 280 277 277 278 279 279 280 282 282 283 281
260 259 257 254 252 254 255 254 254 253 253 253 256 261 263 264 265 265 265 266 268 270 273 277 278 277 278 278 279 280 283 284 283 279 274 274 275 277 278 280 281 281 281 278
259 259 259 258 257 256 255 253 252 252 254 257 259 260 261 264 265 265 268 267 269 272 276 279 278 277 277 279 279 280 281 282 281 278 274 274 276 275 275 277 277 277 279 278
257 257 259 259 258 257 257 256 256 255 256 259 258 258 260 262 263 265 266 267 269 271 273 275 277 279 279 279 280 280 279 280 281 280 278 276 276 274 273 273 273 276 277 278
261 260 260 262 261 259 259 259 258 256 258 259 258 259 261 262 262 263 265 268 271 272 272 273 276 279 280 280 281 280 278 277 278 278 280 278 277 275 273 272 272 274 276 276
264 263 262 262 262 260 261 261 259 258 259 258 259 261 263 263 262 263 266 270 272 273 272 275 277 280 282 282 281 280 278 278 276 276 278 275 274 273 271 272 273 273 275 277
265 264 263 262 262 261 263 263 261 260 261 261 260 260 260 261 264 265 267 271 274 275 276 278 278 280 281 281 281 278 276 275 273 272 274 275 273 272 273 273 273 275 276 277
268 268 267 266 266 267 267 266 265 263 263 263 262 261 261 261 263 267 271 273 273 274 276 278 279 281 281 280 280 279 276 275 273 272 275 276 274 273 274 274 275 275 275 274
268 268 266 265 265 266 266 266 267 267 266 264 264 264 263 264 266 268 271 273 274 274 275 276 278 279 280 279 279 278 278 278 278 277 277 277 276 275 273 272 272 274 275 274
265 264 262 260 261 262 262 264 264 266 267 267 266 263 263 265 267 269 271 273 275 276 277 278 278 278 278 278 277 277 278 278 277 277 275 275 277 277 274 273 273 274 274 274
264 263 264 263 263 263 262 261 262 264 267 269 266 264 263 265 267 269 271 273 274 275 276 277 278 278 277 276 276 276 278 280 281 279 277 277 278 277 275 274 273 273 273 273
Height
5786 5787 5789 5790 5791 5792 5793 5794 5795 5796 5796 5795 5794 5794 5793 5792 5791 5790 5789 5788 5787 5787 5786 5785 5784 5783 5782 5781 5780 5778 5777 5776 5775 5773 5772 5770 5768 5767 5765 5764 5762 5761 5759 5758
5780 5781 5782 5784 5785 5786 5787 5788 5789 5790 5790 5789 5789 5788 5788 5787 5786 5786 5785 5784 5783 5782 5781 5781 5780 5779 5778 5777 5776 5775 5773 5772 5770 5769 5767 5766 5764 5763 5761 5760 5759 5757 5756 5754
5774 5776 5777 5778 5779 5781 5782 5782 5783 5784 5785 5784 5783 5783 5782 5782 5781 5781 5780 5779 5778 5777 5777 5776 5775 5774 5773 5772 5771 5770 5769 5767 5766 5764 5763 5762 5760 5759 5757 5756 5754 5753 5752 5750
5768 5770 5771 5774 5773 5774 5775 5776 5777 5777 5778 5778 5778 5777 5777 5776 5776 5775 5774 5773 5773 5772 5771 5771 5770 5769 5768 5767 5766 5765 5764 5762 5761 5760 5758 5757 5756 5754 5753 5752 5750 5749 5747 5746
5762 5763 5764 5766 5767 5768 5769 5770 5771 5771 5772 5772 5772 5772 5771 5771 5770 5770 5769 5768 5767 5767 5766 5765 5765 5764 5763 5762 5761 5759 5758 5757 5756 5755 5754 5753 5751 5750 5749 5747 5745 5744 5742 5741
5754 5756 5758 5759 5760 5761 5763 5763 5764 5764 5765 5766 5766 5766 5766 5766 5765 5764 5764 5763 5762 5761 5761 5760 5759 5758 5757 5756 5755 5754 5753 5751 5750 5750 5749 5747 5746 5745 5743 5742 5740 5739 5737 5736
5747 5748 5749 5750 5752 5755 5757 5757 5757 5757 5758 5759 5759 5760 5760 5759 5759 5758 5758 5757 5757 5756 5755 5755 5754 5753 5752 5751 5750 5749 5747 5746 5745 5744 5743 5742 5740 5739 5738 5736 5735 5733 5732 5731
5740 5741 5744 5743 5745 5747 5749 5749 5750 5750 5751 5752 5752 5753 5753 5753 5753 5752 5752 5751 5750 5750 5749 5749 5748 5748 5747 5746 5744 5743 5742 5741 5739 5738 5737 5736 5735 5733 5732 5730 5729 5728 5726 5725
5733 5735 5735 5736 5737 5739 5740 5741 5742 5743 5744 5745 5746 5746 5747 5747 5746 5746 5745 5745 5744 5744 5743 5743 5742 5742 5741 5740 5738 5737 5736 5735 5734 5732 5731 5730 5728 5727 5725 5724 5723 5721 5720 5718
5724 5725 5727 5728 5730 5731 5732 5734 5735 5736 5737 5738 5739 5739 5740 5740 5739 5739 5739 5738 5738 5737 5736 5736 5735 5735 5734 5733 5732 5731 5730 5728 5727 5726 5725 5723 5722 5720 5719 5718 5716 5715 5714 5712
5716 5718 5719 5720 5721 5723 5724 5726 5727 5728 5729 5730 5731 5732 5732 5732 5732 5732 5732 5731 5731 5730 5730 5729 5729 5728 5727 5726 5725 5724 5723 5721 5720 5719 5718 5717 5715 5714 5712 5711 5710 5708 5707 5706
5708 5709 5711 5712 5714 5715 5716 5718 5719 5721 5722 5722 5723 5724 5724 5725 5725 5725 5724 5724 5724 5723 5723 5722 5721 5721 5720 5719 5718 5717 5716 5714 5713 5712 5710 5709 5708 5707 5705 5704 5703 5702 5701 5699
5699 5701 5702 5704 5705 5707 5708 5710 5711 5712 5714 5714 5715 5716 5716 5717 5717 5717 5717 5717 5716 5716 5715 5714 5714 5713 5712 5711 5711 5710 5708 5707 5706 5704 5703 5702 5701 5699 5698 5698 5696 5695 5694 5693
5692 5693 5694 5696 5697 5698 5700 5701 5703 5704 5705 5706 5707 5708 5708 5709 5709 5709 5709 5709 5709 5708 5708 5707 5706 5705 5704 5704 5703 5702 5700 5699 5698 5697 5695 5694 5693 5692 5691 5690 5689 5688 5687 5686
5684 5685 5687 5688 5689 5690 5692 5693 5695 5696 5697 5698 5699 5699 5700 5700 5701 5701 5702 5702 5701 5701 5700 5700 5699 5698 5697 5696 5695 5694 5693 5691 5690 5689 5687 5686 5685 5684 5684 5683 5682 5681 5680 5679
5677 5678 5679 5681 5682 5683 5684 5685 5687 5688 5689 5690 5690 5691 5692 5693 5693 5693 5694 5694 5694 5693 5693 5692 5691 5690 5689 5688 5687 5686 5685 5684 5682 5681 5680 5679 5678 5677 5677 5676 5675 5674 5673 5672
5670 5671 5673 5674 5675 5676 5677 5678 5679 5680 5681 5682 5683 5684 5684 5685 5686 5686 5686 5687 5686 5686 5686 5685 5684 5683 5682 5681 5680 5679 5677 5676 5674 5673 5672 5672 5671 5671 5670 5669 5667 5667 5666 5665
5663 5664 5665 5666 5668 5669 5670 5671 5672 5673 5674 5675 5676 5676 5677 5678 5678 5679 5679 5679 5679 5679 5678 5677 5677 5675 5675 5674 5672 5671 5670 5668 5667 5665 5665 5664 5664 5663 5663 5661 5661 5660 5659 5658
5657 5657 5658 5659 5660 5661 5662 5663 5664 5666 5667 5668 5668 5669 5670 5670 5671 5672 5672 5672 5672 5671 5671 5670 5669 5668 5667 5666 5664 5663 5662 5660 5659 5658 5657 5657 5656 5655 5655 5654 5654 5653 5652 5652
5650 5651 5652 5653 5653 5654 5655 5656 5657 5658 5659 5660 5661 5662 5662 5663 5663 5664 5664 5664 5664 5664 5663 5662 5662 5661 5660 5658 5656 5655 5654 5653 5651 5651 5650 5649 5649 5648 5648 5647 5647 5646 5646 5645
5644 5645 5645 5646 5647 5648 5648 5649 5650 5651 5652 5653 5654 5655 5655 5656 5656 5656 5656 5656 5656 5656 5655 5655 5654 5653 5652 5650 5649 5647 5646 5645 5644 5643 5643 5642 5642 5641 5640 5640 5640 5639 5639 5638
5639 5639 5639 5640 5641 5641 5642 5642 5643 5644 5645 5646 5646 5647 5648 5649 5649 5649 5649 5649 5649 5648 5648 5647 5646 5645 5643 5642 5640 5639 5638 5637 5637 5636 5636 5635 5635 5634 5634 5633 5633 5633 5632 5632
5633 5633 5633 5634 5634 5635 5635 5636 5636 5637 5638 5638 5639 5640 5640 5641 5641 5642 5642 5642 5641 5640 5640 5639 5638 5637 5636 5634 5633 5632 5630 5630 5629 5629 5628 5628 5627 5627 5627 5626 5626 5626 5625 5625
5626 5626 5626 5627 5627 5628 5628 5629 5629 5630 5630 5631 5631 5632 5633 5633 5634 5634 5634 5634 5634 5633 5632 5632 5631 5629 5628 5627 5626 5624 5623 5623 5622 5622 5621 5620 5620 5620 5620 5619 5619 5619 5618 5618
5619 5620 5620 5620 5620 5621 5621 5622 5622 5623 5623 5623 5624 5625 5625 5626 5626 5627 5627 5627 5626 5625 5625 5624 5623 5622 5621 5620 5619 5618 5617 5616 5615 5615 5614 5613 5613 5613 5612 5612 5612 5611 5611 5611
5613 5613 5613 5613 5613 5614 5615 5615 5616 5616 5617 5617 5617 5618 5618 5618 5619 5619 5619 5619 5619 5618 5617 5616 5615 5614 5613 5612 5612 5611 5610 5609 5609 5608 5607 5606 5606 5605 5604 5604 5604 5604 5603 5603
5607 5607 5607 5607 5607 5608 5608 5609 5610 5610 5611 5611 5611 5611 5611 5611 5611 5611 5611 5611 5611 5610 5609 5609 5608 5607 5606 5605 5605 5604 5603 5602 5602 5600 5599 5599 5598 5597 5597 5596 5596 5596 5596 5595